Regional Weather Roundup
Issued by NWS

Home | Current Version | Previous Version | Graphics & Text | Print | Product List | Glossary On
Versions: 1 2 3 4 5 6 7 8 9 10 11 12 13 14 15 16 17 18 19 20 21 22 23 24 25 26 27 28 29 30 31 32 33 34 35 36 37 38 39 40 41 42 43 44 45 46 47 48 49 50
000
ASUS43 KDMX 261407
RWRIA

WEATHER ROUNDUP FOR IOWA
NATIONAL WEATHER SERVICE DES MOINES IA
800 AM CST WED NOV 26 2014

NOTE: "FAIR" INDICATES FEW OR NO CLOUDS BELOW 12,000 FEET WITH NO
SIGNIFICANT WEATHER AND/OR OBSTRUCTIONS TO VISIBILITY.

* - THESE STATIONS ARE NOT NWS STATIONS...THUS NOT UNDER NWS
QUALITY CONTROL.  THEY ALSO DO NOT REPORT WEATHER SUCH
AS PRECIPITATION OR FOG.

IAZ001>003-012>014-020>022-031>034-043>046-261500-
   NORTHWEST IOWA

CITY           SKY/WX    TMP DP  RH WIND       PRES   REMARKS
CARROLL *      CLOUDY    28  28 100 NE10      29.88R WCI  19
CHEROKEE *     LGT SNOW  28  28 100 N8        29.94R WCI  20
DENISON *      LGT SNOW  32  32 100 N7        29.87R WCI  26
LE MARS *      LGT RAIN  28  27  93 N18G26    29.99R WCI  16
ORANGE CITY *  CLOUDY    28  25  86 N13G24    29.98R FOG     WCI  18
SHELDON *      MIX PCPN  27  25  93 N21       29.97R WCI  13
SIOUX CITY     CLOUDY    34  30  85 N22G28    29.95R WCI  22
SPENCER        LGT SNOW  27  25  92 N14       29.97R VSB 1   WCI  16
STORM LAKE *   LGT SNOW  28  27  93 NE9       29.92R VSB 1   WCI  20
$$

IAZ055>058-069>071-079>083-090>094-261500-
   SOUTHWEST IOWA

CITY           SKY/WX    TMP DP  RH WIND       PRES   REMARKS
ATLANTIC *     FLURRIES  34  34 100 NW15      29.85R WCI  24
AUDUBON *      FLURRIES  30  27  86 N5        29.87R WCI  25
CLARINDA *     CLOUDY    37  34  87 W12       29.89R WCI  30
COUNCIL BLFS * MIX PCPN  36  36 100 NW18G25   29.88R WCI  25
CRESTON *      CLOUDY    34  34 100 NW14      29.83R FOG     WCI  24
HARLAN  *      MIX PCPN  34  34 100 NW16      29.90R WCI  23
LAMONI         CLOUDY    33  32  96 SW8       29.84S WCI  26
RED OAK *      CLOUDY    37  36  93 NW13G18   29.87R WCI  29
SHENANDOAH *   MIX PCPN  37  36  93 W10       29.90R WCI  30
$$

IAZ047>049-059>061-072>074-084-261500-
   CENTRAL IOWA

CITY           SKY/WX    TMP DP  RH WIND       PRES   REMARKS
AMES           LGT SNOW  27  24  89 E8        29.92R FOG     WCI  19
ANKENY *       CLOUDY    28  27  93 E10       29.90R WCI  19
CHARITON *     MIX PCPN  30  28  93 SE13      29.87S WCI  20
DES MOINES     FRZ DRZL  30  27  88 E8        29.88S FOG     WCI  22
GRINNELL*      LGT SNOW  27  25  93 E14       29.94R VSB 3/4 WCI  15
KNOXVILLE *    CLOUDY    28  27  93 SE10      29.88S WCI  19
MARSHALLTOWN   LGT SNOW  26  22  84 E14       29.94R FOG     WCI  14
PELLA *        LGT SNOW  28  27  93 SE12      29.92S WCI  18
PERRY *        CLOUDY    28  28 100 E13       29.88R WCI  18
$$

IAZ004>006-015-016-023>025-035-036-261500-
   NORTH CENTRAL IOWA

CITY           SKY/WX    TMP DP  RH WIND       PRES   REMARKS
ALGONA *       MOCLDY    27  25  93 E14       29.96R FOG     WCI  15
CLARION *      LGT SNOW  25  25 100 E16       29.94R VSB 3/4 WCI  12
ESTHERVILLE    LGT SNOW  25  24  96 N13       29.98R VSB 3/4 WCI  14
FORT DODGE *   CLOUDY    27  21  80 E12       29.94R WCI  16
MASON CITY     LGT SNOW  25  21  85 E9        29.99R FOG     WCI  15
FOREST CITY *  LGT SNOW  27  25  93 E12       29.97R WCI  16
IOWA FALLS *   LGT SNOW  27  23  86 E14       29.95R WCI  15
$$

IAZ007>011-017>019-026>030-037>042-050>054-066-261500-
   NORTHEAST IOWA

CITY           SKY/WX    TMP DP  RH WIND       PRES   REMARKS
CEDAR RAPIDS   MOCLDY    23  20  88 E10       30.00S WCI  12
CHARLES CITY * CLOUDY    25  19  80 E12       30.01R WCI  14
CLINTON *      MOCLDY    19  16  86 E12       30.11R WCI   7
DECORAH *      MOCLDY    19  18  93 E9        30.04S WCI   9
DUBUQUE        CLOUDY    20  19  96 SE8       30.07R FOG     WCI  10
MONTICELLO *   CLOUDY    21  19  93 E9        30.05S WCI  11
OELWEIN *      PTCLDY    23  21  93 E14       30.01S WCI  11
WATERLOO       CLOUDY    24  20  84 SE10      30.00R WCI  14
$$

IAZ064-065-067-068-078-261500-
   EAST CENTRAL IOWA

CITY           SKY/WX    TMP DP  RH WIND       PRES   REMARKS
DAVENPORT      MOCLDY    21  17  84 E10       30.06F FOG     WCI  10
IOWA CITY      CLOUDY    25  22  88 E7        30.03S WCI  17
MT. PLEASANT * CLOUDY    28  25  86 E13       29.98F WCI  18
MUSCATINE *    PTCLDY    27  23  86 SE5G12    30.04S WCI  21
QUAD CITIES    CLOUDY    21  18  88 E8        30.06F FOG     WCI  11
$$

IAZ062-063-075>077-085>089-095>099-261500-
   SOUTHEAST IOWA

CITY           SKY/WX    TMP DP  RH WIND       PRES   REMARKS
BURLINGTON     CLOUDY    28  24  85 E9        30.01S WCI  19
FAIRFIELD *    CLOUDY    30  23  74 E15       29.95F WCI  19
FORT MADISON * MOCLDY    32  27  80 SE10      29.99F WCI  24
KEOKUK *       CLOUDY    30  27  86 SE10G17   29.98F WCI  21
OSKALOOSA *    CLOUDY    28  25  86 SE12      29.94S WCI  18
CENTERVILLE *  CLOUDY    28  28 100 SE9       29.91S WCI  20
OTTUMWA        CLOUDY    30  21  69 SE10      29.94R WCI  21
WASHINGTON *   MOCLDY    27  27 100 E13       29.99S WCI  16
$$

ABBREVIATIONS USED IN REMARKS
   TC - TEMPERATURES IN CELSIUS
  WCI - WIND CHILL INDEX
   HX - HEAT INDEX
  VSB - VISIBILITY
$$



USA.gov is the U.S. government's official web portal to all federal, state and local government web resources and services.